OPS 4682 DEB, 18427

Orbit data source: Space-Track

OPS 4682 DEB, 18427 is space debris in LEO originally from a launch on Sat, 03 Apr 1965 UTC launched from the Air Force Western Test Range (AFWTR). Debris objects in space refer to the collection of defunct objects orbiting the Earth. Examples of debris include non-operational satellites, rocket bodies, and fragments generated from explosions, collisions, or faulty payload assembly.

Loading next visibility...
Identifier
18427, 1965-027AB
Orbit
LEO
Country
Flag of USUS
Related business
Manufacturer
Unknown
Mission
Spacecraft
Bus & Motor
Unknown
Mass
Unknown
Launch date (UTC)
1965-04-03 (61 years ago)
Launch vehicle
Unknown
Launch site
Air Force Western Test Range (AFWTR)
Object type
Payload
Rocket body
Debris
Shape & HBR
Unknown shape, 0.1 m
Radar Cross Section
Small (<0.1 m²)

Expand to show TLE details & history
Last TLE update: 16 hours ago

TLE from 16 hours ago
0 OPS 4682 DEB
1 18427U 65027AB  25301.41573854  .00000230  00000-0  68987-3 0  9996
2 18427  90.2737 358.6195 0023055 123.5464 258.3603 13.04613877928117
Epoch: 2025-10-28T09:58Z
TLE epoch observation values (Epoch: 2025-10-28T09:58:39.809Z)
Latitude
21.65703°
Longitude
171.84194°
Altitude
1,250.296 km
Speed
7.23 km/s
True Right ascension
23h 54m 02s
True Declination
21° 32' 49"
Sunlit
Object was in full shadow at epoch
Visualization orbit readout
Latitude
Unknown
Longitude
Unknown
Altitude
Unknown
Speed
Unknown
Apparent Right ascension
Unknown
Apparent Declination
Unknown
Sunlit
N/A
Visualization observer readout
Local Sidereal Time
21:19:50
Azimuth
Unknown
Elevation
Unknown
Doppler factor
Unknown
Orbital elements
Apogee altitude
1,258.749 km
Perigee altitude
1,223.616 km
Semi-major axis
7,619.32 km
Eccentricity
0.00231
Inclination
90.2737°
RAAN
358.6195°
Arg. of periapsis
123.5464°
True anomaly
258.10169°
Mean anomaly
258.3603°
Eccentric anomaly
258.23098°
Mean motion
3.26339 °/min
Orbital period
110.31 mins
BSTAR
0.00068987
Loading maneuver chart data...
Computing Atmospheric mass density...
Loading historical data...
Loading historical data...
Loading historical data...
Loading historical data...
Loading historical data...
Loading historical data...
Loading historical data...

Documentation

Showing up to 5 results
|